Location: Copeville
(33.0796°N, 96.4155°W)
Time: 21:19:13
(UTC+00:00)

JUGNU - Visible Passes

Search period start: 31 March 2023 00:00
Search period end: 10 April 2023 00:00
Orbit: 835 x 863 km, 20.0° (Epoch: 31 March)

Date Brightness Start Highest point End Pass type
(mag) Time Alt. Az. Time Alt. Az. Time Alt. Az.
01 Apr ? 11:47:25 10° S 11:49:11 11° SSE 11:50:58 10° SE visible
02 Apr ? 11:31:20 10° S 11:33:41 12° SSE 11:36:01 10° SE visible
03 Apr ? 11:15:23 10° SSW 11:18:10 13° SSE 11:20:56 10° SE visible
04 Apr ? 10:59:33 10° SSW 11:02:39 15° SSE 11:05:45 10° SE visible
05 Apr ? 10:44:31 12° SSW 10:47:08 16° SSE 10:50:31 10° SE visible
06 Apr ? 10:30:01 15° S 10:31:37 17° SSE 10:35:13 10° SE visible
07 Apr ? 10:15:30 17° S 10:16:06 18° S 10:19:54 10° SE visible
08 Apr ? 10:00:59 18° SSE 10:00:59 18° SSE 10:04:33 10° SE visible
09 Apr ? 09:46:27 18° SSE 09:46:27 18° SSE 09:49:10 10° SE visible
09 Apr ? 11:28:59 10° SW 11:33:26 22° S 11:37:52 10° SE visible
